#timestamp,LO_Frequency,Hit,StdDev 
1688979615.7,286046993.4,Y
1688979635.6,286046999.6,P
1688979655.4,286046997.0,N
1688979675.2,286046996.7,N
1688979695.1,286046996.6,N
1688979696.0,286046996.6,Y
1688979715.8,286047000.2,P
1688979735.6,286047000.2,N
1688979755.5,286047002.5,N
1688979775.3,286047002.1,N
1688979795.2,286047002.0,N
1688979815.9,286047002.1,N
1688979835.7,286046999.8,N
1688979855.6,286046999.8,N
1688979875.4,286047000.5,N
1688979895.2,286047000.1,N
1688979915.1,286047000.9,N
1688979916.0,286047000.9,N
1688979935.8,286047000.5,N
1688979955.7,286047001.1,N
1688979975.5,286046998.5,N
1688979995.3,286046998.6,N
1688980015.2,286046998.6,N
1688980035.0,286046998.6,N
1688980035.9,286046998.6,N
1688980055.8,286047001.1,N
1688980075.6,286046998.3,N
1688980095.4,286046998.2,N
1688980115.3,286046998.6,N
1688980135.1,286046999.0,N
1688980155.8,286047001.1,N
1688980175.7,286046999.3,N
1688980195.5,286046998.7,N
1688980215.3,286046999.4,N
1688980235.2,286046999.0,N
1688980255.0,286046998.8,N
1688980255.9,286046998.8,N
1688980275.8,286046998.9,N
1688980295.6,286046997.0,N
1688980315.4,286046997.0,N
1688980335.3,286046996.6,N
1688980355.1,286046997.2,N
1688980375.9,286046997.3,N
1688980395.7,286046997.4,N
1688980415.5,286046997.4,N
1688980435.4,286046997.1,N
1688980455.2,286046996.8,N
1688980475.0,286046997.9,N
1688980475.9,286046997.9,N
1688980495.8,286046997.3,N
1688980515.6,286046997.3,N
1688980535.5,286046997.8,N
1688980555.3,286046998.0,N
1688980575.1,286046995.1,Y
1688980595.9,286046997.1,P
1688980615.7,286046996.6,P
1688980635.8,286046999.0,N
1688980655.6,286046999.1,N
1688980675.5,286047000.6,N
1688980695.3,286047000.5,N
1688980715.1,286047000.9,N
1688980735.9,286047001.2,N
1688980755.7,286047000.0,N
1688980775.5,286047001.1,N
1688980795.4,286047000.8,N
1688980815.2,286047000.7,N
1688980835.1,286046998.1,N
1688980836.0,286046998.1,N
1688980855.8,286046998.1,N
1688980875.6,286046998.2,N
1688980895.5,286047002.8,N
1688980915.3,286047000.6,N
1688980935.2,286046998.3,N
1688980955.9,286046998.3,N
1688980975.7,286047001.1,N
1688980995.6,286047000.4,N
1688981015.4,286047000.2,N
1688981035.2,286047000.5,N
1688981055.1,286046999.8,N
1688981056.0,286046999.8,N
1688981075.8,286047000.2,N
1688981095.7,286047002.2,N
1688981115.5,286047000.2,N
1688981135.4,286047000.8,N
1688981155.2,286047000.7,N
1688981175.0,286046999.0,N
1688981175.9,286046999.0,N
1688981195.8,286047001.2,N
1688981215.6,286046998.6,N
1688981235.4,286046998.2,N
1688981255.3,286046999.1,N
1688981275.1,286046999.3,N
1688981295.9,286046999.4,N
1688981315.7,286046999.3,N
1688981335.5,286046999.6,N
1688981355.4,286046998.5,N
1688981375.2,286046998.4,N
1688981395.0,286046998.4,N
1688981396.0,286046998.4,N
1688981415.8,286046998.7,N
1688981435.6,286046998.4,N
1688981455.5,286046999.2,N
1688981475.3,286046999.3,N
1688981495.1,286046999.4,N
1688981515.9,286046997.2,N
1688981535.7,286046996.5,Y
1688981555.6,286046998.9,P
1688981575.4,286046996.7,P
1688981595.2,286046996.5,N
1688981615.1,286046998.9,N
1688981616.0,286046998.9,N
1688981635.8,286046998.7,N
1688981655.6,286046999.2,N
1688981675.5,286046996.8,Y
1688981695.3,286046998.4,P
1688981715.2,286047001.2,P
1688981735.9,286046998.4,N
1688981755.7,286046998.7,N
1688981775.6,286047001.1,N
1688981795.4,286047000.8,N
1688981815.2,286047000.9,N
1688981835.1,286047001.0,N
1688981836.0,286047001.0,N
1688981855.8,286047001.0,N
1688981875.7,286046999.9,N
1688981895.5,286047001.9,N
1688981915.3,286047004.4,Y
1688981935.2,286047002.3,P
1688981955.0,286047002.2,N
1688981955.9,286047002.2,N
1688981975.8,286046999.8,N
1688981995.6,286046999.7,N
1688982015.4,286047000.2,N
1688982035.3,286047000.8,N
1688982055.1,286047000.9,N
1688982075.8,286047001.2,N
1688982095.7,286046998.2,N
1688982115.5,286047000.9,N
1688982135.4,286047000.7,N
1688982155.2,286046999.9,N
1688982175.0,286046999.7,N
1688982175.9,286046999.7,N
1688982195.8,286047000.0,N
1688982215.6,286047000.0,N
1688982235.5,286047000.3,N
1688982255.3,286047000.2,N
1688982275.1,286047000.0,N
1688982295.9,286047000.2,N
1688982315.7,286047001.8,N
1688982335.5,286047001.8,N
1688982355.4,286047002.6,N
1688982375.2,286047002.6,N
1688982395.1,286047002.2,N
1688982396.0,286047002.2,N
1688982415.8,286047002.2,N
1688982435.6,286047001.4,N
1688982455.5,286047001.8,N
1688982475.3,286047001.4,N
1688982495.2,286047004.4,Y
1688982515.9,286047002.8,P
1688982535.7,286047002.4,N
1688982555.6,286047000.2,N
1688982575.4,286047001.1,N
1688982595.2,286047000.6,N
1688982615.1,286047000.0,N
1688982616.0,286047000.0,N
1688982635.8,286047002.3,N
1688982655.7,286047001.2,N
1688982675.5,286047000.9,N
1688982695.3,286047002.8,N
1688982715.2,286047002.6,N
1688982735.0,286047002.1,N
1688982735.9,286047002.1,N
1688982755.8,286047001.9,N
1688982775.6,286047002.6,N
1688982795.4,286047002.8,N
1688982815.3,286047002.6,N
1688982835.1,286047001.9,N
1688982855.9,286047002.6,N
1688982875.7,286047002.4,N
1688982895.5,286047002.5,N
1688982915.4,286047002.5,N
1688982935.2,286047002.5,N
1688982955.0,286047002.6,N
1688982955.9,286047002.6,N
1688982975.8,286047000.1,N
1688982995.6,286046999.8,N
1688983015.5,286046999.8,N
1688983035.3,286047000.0,N
1688983055.1,286047001.0,N
1688983075.9,286047002.4,N
1688983095.7,286047001.6,N
1688983115.5,286047001.9,N
1688983135.4,286047001.4,N
1688983155.2,286047001.9,N
1688983175.1,286047001.5,N
1688983176.0,286047001.5,N
1688983195.8,286047001.6,N
